DW4236 Weather Reports


time (UTC)temp
F
wind
direction
speed
knots
gust
knots
rain 1hr
in
rain 24hr
in
rain mn
in
humidity
%
barometer
mb
20260902150605 66 149 1.7 2.6 0.00 0.01 0.00 89 1022.3
20260902150105 66 163 0.9 2.6 0.00 0.01 0.00 90 1022.3
20260902144605 65 161 0.9 2.6 0.00 0.02 0.00 90 1022.7
20260902144106 65 161 0.0 1.7 0.00 0.02 0.00 90 1022.8
20260902143605 65 166 1.7 2.6 0.00 0.03 0.00 90 1022.6
20260902142605 65 174 0.0 1.7 0.00 0.04 0.00 90 1022.5
20260902142106 65 174 0.9 2.6 0.00 0.05 0.00 90 1022.6
20260902141605 65 174 0.0 2.6 0.00 0.05 0.00 90 1022.4
20260902141105 65 174 2.6 5.2 0.00 0.05 0.00 90 1022.3
20260902140605 65 164 2.6 5.2 0.00 0.06 0.00 91 1022.2
20260902140104 65 170 0.9 4.3 0.00 0.06 0.00 91 1022.3
20260902135604 65 156 0.9 2.6 0.00 0.06 0.00 91 1022.4
20260902135104 64 134 1.7 5.2 0.00 0.06 0.00 91 1022.5
20260902134605 64 146 0.0 2.6 0.00 0.06 0.00 91 1022.5
20260902134105 64 155 0.0 4.3 0.00 0.07 0.00 91 1022.6
20260902133605 64 171 0.9 4.3 0.00 0.07 0.00 91 1022.5
20260902133106 64 176 1.7 2.6 0.00 0.08 0.00 91 1022.4
20260902132105 64 176 0.9 2.6 0.00 0.09 0.00 92 1022.2
20260902131605 64 172 0.9 2.6 0.00 0.10 0.00 92 1022.1
20260902130605 64 157 1.7 7.0 0.00 0.11 0.00 92 1022.0
20260902130105 64 170 3.5 6.1 0.00 0.11 0.00 93 1021.8
20260902125605 64 141 3.5 7.0 0.00 0.11 0.00 93 1021.9
20260902124105 63 170 2.6 7.0 0.00 0.11 0.00 94 1022.0
20260902123605 63 163 2.6 7.8 0.00 0.11 0.00 94 1021.9
20260902123106 64 134 1.7 5.2 0.00 0.11 0.00 95 1021.9
20260902122606 64 142 1.7 2.6 0.00 0.11 0.00 95 1021.9
20260902122105 64 158 2.6 2.6 0.00 0.11 0.00 95 1021.6
20260902121604 64 218 0.9 4.3 0.00 0.11 0.00 95 1021.6
20260902121104 64 143 0.9 2.6 0.00 0.11 0.00 95 1021.5
20260902120605 64 128 0.0 2.6 0.00 0.11 0.00 95 1021.5
20260902115105 64 143 0.9 2.6 0.00 0.11 0.00 95 1021.5
20260902114605 64 144 0.9 5.2 0.00 0.11 0.00 95 1021.4
20260902114105 64 133 0.9 2.6 0.00 0.11 0.00 95 1021.5
20260902113604 64 130 0.0 2.6 0.00 0.11 0.00 95 1021.7
20260902113105 64 130 0.0 2.6 0.00 0.11 0.00 95 1021.7
20260902112606 64 130 0.0 1.7 0.00 0.12 0.00 95 1021.6
20260902111606 64 130 0.9 2.6 0.00 0.12 0.00 95 1021.7
20260902111105 64 131 0.9 2.6 0.00 0.12 0.00 95 1021.6
20260902110606 64 132 0.0 0.9 0.00 0.12 0.00 95 1021.7
20260902110105 64 132 0.9 2.6 0.00 0.12 0.00 95 1021.7
20260902105104 64 132 0.0 0.0 0.00 0.12 0.00 95 1021.5
20260902104605 64 132 0.0 0.9 0.00 0.13 0.00 95 1021.5
20260902104105 64 132 0.9 1.7 0.00 0.13 0.00 95 1021.6
20260902103605 64 132 0.0 0.9 0.00 0.13 0.00 95 1021.5
20260902102604 64 143 0.0 0.0 0.00 0.14 0.00 95 1021.4
20260902102105 64 143 0.0 2.6 0.00 0.14 0.00 95 1021.4
20260902101104 64 142 1.7 2.6 0.00 0.14 0.00 95 1021.2
20260902100605 64 74 0.0 0.0 0.00 0.14 0.00 95 1021.1
20260902100104 64 74 0.0 0.0 0.00 0.14 0.00 95 1021.1
20260902095605 64 74 0.0 1.7 0.00 0.14 0.00 95 1021.1
20260902095104 64 74 0.0 0.9 0.00 0.14 0.00 95 1021.0
20260902094606 64 74 0.0 1.7 0.00 0.14 0.00 95 1021.0
20260902094105 64 74 0.9 1.7 0.00 0.14 0.00 95 1021.0
20260902093605 64 74 0.0 1.7 0.00 0.14 0.00 95 1020.9
20260902093104 64 74 0.9 2.6 0.00 0.14 0.00 95 1020.8
20260902092605 64 74 0.9 2.6 0.00 0.14 0.00 94 1020.7
20260902092104 64 74 0.0 1.7 0.00 0.14 0.00 94 1020.8
20260902091605 64 74 0.0 1.7 0.00 0.14 0.00 94 1020.7
20260902090607 64 71 0.9 2.6 0.00 0.14 0.00 94 1020.6
20260902090106 64 65 0.9 2.6 0.00 0.14 0.00 94 1020.7
20260902085605 64 65 0.0 0.0 0.00 0.14 0.00 94 1020.7
20260902085104 65 65 0.9 1.7 0.00 0.14 0.00 94 1020.7
20260902084605 64 64 0.0 0.0 0.00 0.14 0.00 94 1020.7
20260902084105 65 64 0.0 1.7 0.00 0.14 0.00 94 1020.6
20260902083604 65 64 0.0 1.7 0.00 0.14 0.00 94 1020.6
20260902083105 65 65 0.9 2.6 0.00 0.14 0.00 94 1020.5
20260902082106 65 38 0.9 2.6 0.00 0.14 0.00 94 1020.4
20260902081106 65 81 2.6 2.6 0.00 0.14 0.00 93 1020.4
20260902080605 65 84 1.7 4.3 0.00 0.14 0.00 93 1020.3
20260902080106 65 78 0.9 2.6 0.00 0.14 0.00 93 1020.4
20260902075605 65 80 0.0 2.6 0.00 0.14 0.00 93 1020.4
20260902075104 65 80 0.9 2.6 0.00 0.14 0.00 93 1020.4
20260902074605 65 76 0.9 2.6 0.00 0.14 0.00 93 1020.4
20260902074105 65 77 0.9 2.6 0.00 0.14 0.00 93 1020.3
20260902073605 65 133 1.7 2.6 0.00 0.14 0.00 93 1020.3
20260902073104 65 96 1.7 2.6 0.00 0.14 0.00 93 1020.3
20260902072605 65 127 0.9 2.6 0.00 0.14 0.00 93 1020.2
20260902072104 65 147 0.0 0.9 0.00 0.14 0.00 93 1020.2
20260902071105 65 147 0.0 0.9 0.00 0.14 0.00 93 1020.3
20260902070604 65 147 0.0 0.0 0.00 0.14 0.00 93 1020.3
20260902070105 65 147 0.0 1.7 0.00 0.14 0.00 93 1020.4
20260902065604 65 147 0.9 2.6 0.00 0.14 0.00 93 1020.3
20260902064605 65 149 0.0 2.6 0.00 0.14 0.00 93 1020.3
20260902063605 65 149 0.9 2.6 0.00 0.14 0.00 93 1020.3
20260902063104 65 117 2.6 4.3 0.00 0.15 0.00 93 1020.3
20260902062105 65 135 1.7 2.6 0.00 0.15 0.00 93 1020.4
20260902061605 65 126 0.0 2.6 0.00 0.15 0.00 93 1020.4
20260902061105 65 110 0.9 2.6 0.00 0.15 0.00 93 1020.4
20260902060605 65 151 0.9 2.6 0.00 0.15 0.00 93 1020.4
20260902060104 65 151 1.7 2.6 0.00 0.15 0.00 93 1020.4
20260902055604 65 158 1.7 7.8 0.00 0.15 0.00 93 1020.5
20260902055104 65 135 4.3 7.8 0.00 0.16 0.00 93 1020.5
20260902054605 65 151 2.6 7.0 0.00 0.16 0.00 93 1020.6
20260902054106 65 170 0.9 7.0 0.00 0.17 0.00 93 1020.6
20260902053105 65 122 1.7 4.3 0.00 0.18 0.00 93 1020.5
20260902052604 65 137 1.7 5.2 0.00 0.20 0.00 93 1020.4
20260902052105 65 157 0.9 2.6 0.00 0.20 0.00 93 1020.4
20260902051105 65 157 0.9 1.7 0.00 0.22 0.00 93 1020.2
20260902050606 65 159 0.0 0.0 0.00 0.24 0.00 93 1020.3
20260902050104 65 159 0.0 2.6 0.00 0.27 0.00 93 1020.1
20260902045604 65 157 0.9 2.6 0.00 0.30 0.00 93 1020.1
20260902045105 65 176 0.0 2.6 0.00 0.32 0.00 93 1020.2
20260902044605 65 179 1.7 5.2 0.00 0.36 0.00 93 1020.2
20260902044104 65 174 1.7 2.6 0.00 0.40 0.00 93 1020.4
20260902043606 65 172 4.3 7.0 0.00 0.46 0.00 93 1020.4
20260902043105 65 175 0.9 4.3 0.00 0.47 0.00 93 1020.3
20260902042604 65 122 1.7 2.6 0.00 0.48 0.00 93 1020.3
20260902042105 65 170 0.9 2.6 0.00 0.49 0.00 93 1020.3
20260902041605 65 175 2.6 7.0 0.00 0.50 0.00 92 1020.1
20260902041105 66 130 0.9 2.6 0.00 0.52 0.00 92 1020.1
20260902040105 66 168 1.7 7.0 0.00 0.58 0.00 92 1019.8
20260902035604 66 179 2.6 4.3 0.00 0.59 0.59 92 1019.7
20260902035104 66 163 0.9 5.2 0.00 0.59 0.59 92 1019.6
20260902034106 66 127 1.7 2.6 0.00 0.60 0.59 92 1019.4
20260902033605 66 155 2.6 6.1 0.00 0.61 0.59 92 1019.2
20260902033106 66 174 4.3 7.0 0.00 0.62 0.59 92 1019.2
20260902032606 66 170 2.6 6.1 0.00 0.63 0.59 92 1019.1
20260902032105 66 196 2.6 6.1 0.00 0.63 0.59 91 1019.1
20260902031604 66 163 1.7 6.1 0.00 0.63 0.59 92 1019.1
20260902031105 66 177 2.6 8.7 0.00 0.63 0.59 91 1019.0
20260902030605 67 169 2.6 6.1 0.00 0.63 0.59 91 1018.9
20260902030104 67 169 3.5 7.0 0.00 0.63 0.59 91 1018.9
20260902025105 67 160 1.7 6.1 0.00 0.64 0.59 91 1018.6
20260902024605 67 149 1.7 7.0 0.00 0.64 0.59 91 1018.5
20260902024104 67 137 2.6 5.2 0.00 0.64 0.59 91 1018.5
20260902023604 67 157 1.7 5.2 0.00 0.64 0.59 91 1018.6
20260902023105 67 150 4.3 7.8 0.00 0.64 0.59 91 1018.6
20260902021605 68 185 2.6 7.0 0.00 0.64 0.59 91 1018.4
20260902021104 68 175 2.6 7.8 0.00 0.64 0.59 91 1018.5
20260902020104 68 151 1.7 5.2 0.00 0.64 0.59 91 1018.5
20260902015104 68 162 1.7 6.1 0.00 0.64 0.59 91 1018.4
20260902014605 68 157 4.3 7.0 0.00 0.64 0.59 91 1018.4
20260902014105 68 152 1.7 4.3 0.00 0.64 0.59 91 1018.4
20260902013106 69 152 0.9 2.6 0.00 0.64 0.59 91 1018.3
20260902012604 69 163 4.3 6.1 0.00 0.64 0.59 90 1018.2
20260902012104 69 158 3.5 7.0 0.00 0.64 0.59 90 1018.1
20260902011605 69 166 2.6 7.0 0.00 0.64 0.59 90 1017.9
20260902010604 69 178 1.7 7.0 0.00 0.64 0.59 90 1017.9
20260902010105 69 137 4.3 8.7 0.00 0.64 0.59 90 1017.7
20260902005605 70 176 2.6 7.8 0.00 0.64 0.59 90 1017.6
20260902005104 70 175 1.7 7.8 0.00 0.64 0.59 90 1017.4
20260902004605 70 169 4.3 10.4 0.00 0.64 0.59 89 1017.4
20260902004104 70 176 3.5 8.7 0.00 0.64 0.59 89 1017.2
20260902003105 71 196 1.7 7.0 0.00 0.64 0.59 90 1017.2
20260902002606 71 167 2.6 7.0 0.00 0.64 0.59 90 1016.9
20260902001605 72 203 1.7 6.1 0.00 0.64 0.59 91 1016.7
20260902001104 72 177 1.7 6.1 0.00 0.64 0.59 91 1016.7
20260902000604 73 69 4.3 7.8 0.00 0.64 0.59 91 1016.5
20260902000106 73 88 3.5 7.8 0.00 0.64 0.59 91 1016.4
20260901235605 73 54 2.6 7.0 0.00 0.64 0.59 91 1016.3
20260901235105 74 17 2.6 8.7 0.00 0.64 0.59 91 1016.3
20260901234605 74 49 5.2 8.7 0.00 0.64 0.59 91 1016.2
20260901234104 75 53 1.7 7.0 0.00 0.64 0.59 92 1016.2
20260901233605 75 30 2.6 7.8 0.00 0.64 0.59 92 1016.2
20260901233104 75 50 4.3 10.4 0.00 0.64 0.59 92 1016.3
20260901232605 76 56 2.6 6.1 0.00 0.64 0.59 92 1016.2
20260901232105 76 14 2.6 5.2 0.00 0.64 0.59 92 1016.3
20260901231605 76 55 1.7 2.6 0.00 0.64 0.59 92 1016.2
20260901231105 76 34 0.9 4.3 0.00 0.64 0.59 91 1016.2
20260901230604 76 29 0.9 2.6 0.00 0.64 0.59 91 1016.2
20260901230105 76 21 1.7 5.2 0.00 0.64 0.59 91 1016.2
20260901225605 77 80 1.7 7.0 0.00 0.64 0.59 91 1016.0
20260901225105 77 87 0.0 2.6 0.00 0.64 0.59 90 1016.1
20260901224104 77 56 4.3 7.8 0.00 0.64 0.59 90 1015.6
20260901223604 78 59 4.3 7.8 0.00 0.64 0.59 89 1015.5
20260901223104 78 82 2.6 7.8 0.00 0.64 0.59 89 1015.4
20260901222604 78 32 1.7 4.3 0.00 0.64 0.59 88 1015.4
20260901221105 79 95 2.6 5.2 0.00 0.64 0.59 87 1015.2
20260901220605 79 114 2.6 4.3 0.00 0.64 0.59 86 1015.1
20260901220104 79 130 2.6 7.0 0.00 0.64 0.59 85 1015.1
20260901215605 80 137 1.7 7.0 0.00 0.64 0.59 85 1015.1
20260901215104 80 153 2.6 4.3 0.00 0.64 0.59 85 1015.1
20260901214605 80 135 1.7 6.1 0.00 0.64 0.59 85 1015.1
20260901214105 80 161 1.7 5.2 0.00 0.64 0.59 85 1015.0
20260901212604 80 157 2.6 6.1 0.00 0.64 0.59 85 1014.9
20260901212105 80 140 1.7 2.6 0.00 0.64 0.59 85 1015.0
20260901211604 80 120 1.7 2.6 0.00 0.64 0.59 85 1015.0
20260901210604 80 169 0.9 4.3 0.00 0.64 0.59 85 1015.0
20260901205605 80 176 1.7 2.6 0.00 0.64 0.59 85 1014.8
20260901205105 80 177 1.7 6.1 0.00 0.64 0.59 85 1014.9
20260901204605 80 157 0.9 2.6 0.00 0.64 0.59 85 1014.9
20260901204105 80 161 1.7 5.2 0.00 0.64 0.59 84 1014.9
20260901203604 81 140 0.9 2.6 0.00 0.64 0.59 84 1014.9
20260901203104 80 140 0.0 0.0 0.00 0.64 0.59 84 1014.9
20260901202605 80 140 0.9 1.7 0.00 0.64 0.59 84 1014.8
20260901202105 80 140 0.0 0.0 0.00 0.64 0.59 84 1014.8
20260901201104 81 140 0.0 0.9 0.00 0.64 0.59 83 1014.8
20260901200605 81 140 0.0 1.7 0.00 0.64 0.59 84 1014.8
20260901200106 81 140 0.9 2.6 0.00 0.64 0.59 84 1014.8
20260901195605 80 140 0.0 0.0 0.00 0.64 0.59 84 1014.8
20260901194605 80 142 1.7 2.6 0.00 0.64 0.59 84 1014.8
20260901194104 80 159 1.7 2.6 0.00 0.64 0.59 84 1014.8
20260901193104 80 159 0.0 1.7 0.00 0.64 0.59 84 1014.8
20260901192605 80 159 1.7 2.6 0.00 0.64 0.59 84 1014.8
20260901192106 80 164 2.6 4.3 0.00 0.64 0.59 83 1015.0
20260901191605 81 168 1.7 2.6 0.00 0.64 0.59 83 1015.1
20260901191104 81 167 2.6 6.1 0.00 0.64 0.59 83 1015.1
20260901190605 80 165 0.0 2.6 0.00 0.64 0.59 84 1015.1
20260901190105 80 164 0.0 2.6 0.00 0.64 0.59 85 1015.1
20260901185105 80 134 2.6 6.1 0.00 0.64 0.59 85 1015.2
20260901184104 80 194 1.7 6.1 0.00 0.64 0.59 86 1015.3
20260901183604 79 136 0.9 2.6 0.00 0.64 0.59 87 1015.3
20260901183104 79 129 0.9 2.6 0.00 0.64 0.59 87 1015.3
20260901182604 79 160 0.9 2.6 0.00 0.64 0.59 87 1015.2
20260901182104 78 130 0.9 2.6 0.00 0.64 0.59 87 1015.2
20260901181605 78 133 1.7 4.3 0.00 0.64 0.59 88 1015.3
20260901181105 78 155 2.6 6.1 0.00 0.64 0.59 88 1015.2
20260901180105 78 153 1.7 5.2 0.00 0.64 0.59 88 1015.3
20260901175605 78 147 0.0 2.6 0.00 0.64 0.59 90 1015.3
20260901175105 77 148 1.7 5.2 0.00 0.64 0.59 89 1015.3
20260901174604 78 169 1.7 7.8 0.00 0.64 0.59 89 1015.2
20260901174105 78 168 0.9 2.6 0.00 0.64 0.59 89 1015.2
20260901172604 78 225 1.7 5.2 0.00 0.64 0.59 93 1015.2
20260901172105 77 172 0.9 4.3 0.00 0.64 0.59 93 1015.3
20260901171604 76 176 2.6 7.0 0.00 0.64 0.59 95 1015.2
20260901171104 77 170 0.9 6.1 0.00 0.64 0.59 95 1015.2
20260901170605 76 179 1.7 6.1 0.00 0.64 0.59 96 1015.3
20260901170105 76 176 4.3 7.8 0.00 0.64 0.59 97 1015.4
20260901165604 76 171 1.7 5.2 0.00 0.64 0.59 97 1015.4
20260901165104 75 266 2.6 5.2 0.00 0.64 0.59 97 1015.6
20260901164105 74 163 0.0 2.6 0.00 0.64 0.59 98 1015.7
20260901163605 74 168 0.0 0.9 0.00 0.64 0.59 98 1015.6
20260901162605 73 168 0.9 2.6 0.00 0.64 0.59 97 1015.9
20260901162104 73 156 0.0 0.0 0.00 0.64 0.59 98 1016.0
20260901161604 72 156 0.0 0.0 0.01 0.64 0.59 97 1015.9
20260901161104 72 156 0.9 2.6 0.01 0.64 0.59 97 1015.8
20260901160105 72 156 0.9 2.6 0.01 0.64 0.59 97 1016.2
20260901155105 72 156 0.0 1.7 0.02 0.64 0.59 97 1016.6
20260901154605 72 157 0.0 0.9 0.02 0.64 0.59 97 1016.6
20260901154104 72 158 0.0 0.0 0.02 0.64 0.59 97 1016.8
20260901153605 72 158 0.0 0.0 0.03 0.64 0.59 97 1016.9
20260901153104 72 186 0.0 0.0 0.03 0.64 0.59 97 1017.0
20260901152605 72 186 0.0 0.0 0.04 0.64 0.59 97 1017.1
20260901152105 72 186 0.0 0.0 0.05 0.64 0.59 97 1017.0
20260901151604 71 186 0.0 0.0 0.04 0.63 0.58 97 1016.9